Flag for Jordan Weather past 2 weeks in Amman, Jordan

Now
52 °F

Clear.


Feels Like: 50 °F
Forecast: 44 / 52 °F
Wind: 6 mph from Northwest

Location: Amman Airport

Current Time: Dec 20, 2014 at 7:34:59 PM

Latest Report: Dec 20, 2014 at 7:00 PM


Visibility: 4 mi

Pressure: 30.12 "Hg

Humidity: 77%

Dew point: 45 °F

Location of AmmanLocation

Historic Weather in Amman — Graph

°F

Amman temperature yesterday

Maximum temperature yesterday: 57 °F (at 11:00 AM)
Minimum temperature yesterday: 48 °F (at 3:00 AM)
Average temperature yesterday: 53 °F

Past Weeks' High & Low Weather Summary

 TemperatureHumidityPressure
High70 °F (Dec 6, 2:00 PM)100% (Dec 15, 1:00 AM)30.33 "Hg (Dec 15, 1:00 AM)
Low43 °F (Dec 17, 5:00 AM)34% (Dec 9, 1:00 AM)29.89 "Hg (Dec 9, 12:00 PM)
Average55 °F71%30.12 "Hg
* Reported Dec 5 6:00 PM — Dec 20 6:00 PM, Amman, Weather by CustomWeather, © 2014

Note: Actual official high and low records may vary slightly from our data, if they occured in-between our weather recording intervals... More about our weather records

Advertising

Amman weather history for previous 24 hours

 ConditionsComfort  
Time TempWeatherWind HumidityBarometerVisibility
6:00 PM
Dec 20
52 °FClear.5 mph77%30.12 "Hg4 mi
5:00 PM54 °FPassing clouds.9 mph72%30.12 "Hg3 mi
4:00 PM55 °FScattered clouds.6 mph67%30.09 "Hg3 mi
3:00 PM55 °FScattered clouds.8 mph67%30.09 "Hg3 mi
2:00 PM57 °FClear.7 mph59%30.09 "Hg4 mi
1:00 PM57 °FClear.7 mph59%30.09 "Hg4 mi
12:00 PM57 °FHaze.7 mph63%30.09 "Hg3 mi
11:00 AM57 °FHaze.No wind63%30.12 "Hg3 mi
10:00 AM57 °FHaze.No wind67%30.12 "Hg2 mi
9:00 AM54 °FHaze.No wind77%30.12 "Hg2 mi
8:00 AM50 °FClear.No wind82%30.12 "Hg2 mi
7:00 AM48 °FFog.5 mph94%30.12 "Hg2 mi
6:00 AM48 °FHaze.No wind87%30.12 "Hg2 mi
5:00 AM48 °FHaze.No wind87%30.09 "Hg2 mi
4:00 AM50 °FHaze.3 mph82%30.09 "Hg2 mi
2:00 AM50 °FHaze.No wind82%30.15 "Hg2 mi
1:00 AM50 °FHaze.No wind82%30.15 "Hg2 mi
12:00 AM52 °FHaze.No wind77%30.15 "Hg2 mi
11:00 PM
Dec 19
54 °FHaze.No wind77%30.15 "Hg2 mi
10:00 PM54 °FHaze.No wind77%30.12 "Hg2 mi
9:00 PM54 °FHaze.No wind77%30.12 "Hg2 mi
8:00 PM54 °FHaze.No wind77%30.12 "Hg2 mi
7:00 PM54 °FHaze.No wind77%30.12 "Hg2 mi
Weather by CustomWeather, © 2014

See weather overviewHow to use our weather pages